sat.trackr.live / text

‹ back to catalog

STARLINK-31669

NORAD 59515 · 2024-073E

PAYLOAD ACTIVE UNKNOWN

§ Identity

Operator
Country
US
Launch date
2024-04-17
Launch site
AFETR
Launch vehicle
Mass (kg)
RCS (m²)

Purposes: comms

External: N2YO · Heavens-Above · Gunter

§ Orbital elements

Epoch: 2026-09-21T03:55:55.763904Z

Period
94.27 min
Inclination
43.0025°
Eccentricity
0.0001339
Mean motion
15.27581118 rev/d
Perigee alt
482.1 km
Apogee alt
484.0 km
Semi-major
6,861.2 km
B*
3.5968e-5
RAAN
293.8504°
Arg perigee
269.5919°
Mean anomaly
90.4779°
Rev number
13,607

§ Raw data

STARLINK-316691 59515U 24073E   26264.16383986  .00000728  00000+0  35968-4 0  99962 59515  43.0025 293.8504 0001339 269.5919  90.4779 15.27581118136071

JSON: /api/v1/satellites/59515 · /tle

For live sub-satellite position, see the globe view (requires WebGL).

§ Visibility from observer

Set your observer location to see the next 7 days of passes ≥ 10°. The values pass through the URL so the page stays shareable.

No JS? Fill the form by hand. The geolocation button needs JavaScript.